FW3337 Weather Reports


Display with metric or nautical units.
time (UTC)temp
F
wind
direction
speed
MPH
gust
MPH
rain 1hr
in
rain 24hr
in
rain mn
in
humidity
%
barometer
mb
20260506160016 65 211 0.0 4.0 0.00 0.00 0.00 80 1007.9
20260506154517 65 222 0.0 7.0 0.00 0.00 0.00 78 1007.8
20260506153013 66 235 0.0 9.0 0.00 0.00 0.00 75 1007.8
20260506151513 67 207 2.0 7.0 0.00 0.00 0.00 72 1008.2
20260506150012 67 247 4.0 13.0 0.00 0.00 0.00 71 1008.1
20260506144511 68 245 4.0 10.0 0.00 0.00 0.00 71 1008.1
20260506143016 67 233 3.0 17.0 0.00 0.00 0.00 72 1008.1
20260506141510 67 277 1.0 11.0 0.00 0.00 0.00 73 1008.0
20260506140008 67 213 3.0 7.0 0.00 0.00 0.00 74 1008.2
20260506134508 66 233 2.0 8.0 0.00 0.00 0.00 74 1008.4
20260506133008 66 230 5.0 13.0 0.00 0.00 0.00 74 1008.0
20260506131507 66 213 3.0 8.0 0.00 0.00 0.00 75 1008.3
20260506130007 66 195 1.0 9.0 0.00 0.00 0.00 75 1007.9
20260506124505 65 251 0.0 8.0 0.00 0.00 0.00 76 1008.0
20260506123004 65 207 3.0 9.0 0.00 0.00 0.00 77 1008.1
20260506121504 65 216 3.0 8.0 0.00 0.00 0.00 77 1008.1
20260506120002 65 229 3.0 7.0 0.00 0.08 0.00 77 1008.3
20260506114501 65 235 2.0 10.0 0.00 0.08 0.00 77 1008.6
20260506113100 65 250 3.0 6.0 0.00 0.08 0.00 77 1008.3
20260506111600 65 172 3.0 9.0 0.00 0.08 0.00 78 1008.3
20260506110059 64 218 3.0 7.0 0.00 0.08 0.00 80 1008.3
20260506104558 63 226 1.0 7.0 0.00 0.08 0.00 80 1008.5
20260506103056 63 222 2.0 8.0 0.00 0.08 0.00 81 1008.3
20260506101555 62 228 1.0 4.0 0.00 0.08 0.00 83 1008.3
20260506100055 61 195 0.0 3.0 0.00 0.08 0.00 85 1008.0
20260506094554 60 204 0.0 2.0 0.00 0.08 0.00 85 1008.2
20260506093107 59 223 0.0 3.0 0.00 0.08 0.00 86 1008.2
20260506091551 60 223 0.0 2.0 0.00 0.08 0.00 84 1008.1
20260506090056 60 223 0.0 3.0 0.00 0.08 0.00 84 1008.3
20260506084548 59 223 0.0 3.0 0.00 0.08 0.00 85 1008.4
20260506083046 60 223 0.0 1.0 0.00 0.08 0.00 83 1008.5
20260506081544 60 223 0.0 2.0 0.00 0.08 0.00 82 1008.4
20260506073035 63 223 0.0 3.0 0.00 0.08 0.00 76 1008.4
20260506071535 64 223 0.0 4.0 0.00 0.08 0.00 74 1008.5
20260506061524 66 222 0.0 7.0 0.00 0.08 0.00 68 1008.6
20260506044516 68 167 1.0 7.0 0.00 0.08 0.00 63 1009.2
20260506043011 68 227 2.0 8.0 0.00 0.08 0.00 62 1009.3
20260506041509 69 223 1.0 10.0 0.00 0.08 0.00 62 1009.3
20260506040007 69 208 1.0 10.0 0.00 0.08 0.08 61 1009.1
20260506034507 70 199 2.0 11.0 0.00 0.08 0.08 59 1009.2
20260506033006 70 177 3.0 8.0 0.00 0.08 0.08 58 1009.0
20260506031504 71 223 2.0 5.0 0.00 0.08 0.08 55 1008.9
20260506030004 72 216 4.0 10.0 0.00 0.08 0.08 54 1008.9
20260506024504 72 210 2.0 8.0 0.00 0.08 0.08 52 1008.8
20260506023001 73 219 3.0 11.0 0.00 0.08 0.08 49 1008.8
20260506021502 74 210 4.0 9.0 0.00 0.08 0.08 47 1008.7
20260506020126 74 227 1.0 9.0 0.00 0.08 0.08 46 1008.6
20260506014600 74 206 2.0 5.0 0.00 0.08 0.08 46 1008.5
20260506013059 75 209 2.0 7.0 0.00 0.08 0.08 44 1008.3
20260506011602 75 237 2.0 11.0 0.00 0.08 0.08 43 1008.1
20260506010058 76 188 3.0 8.0 0.00 0.08 0.08 42 1008.0
20260506004558 76 221 1.0 5.0 0.00 0.08 0.08 39 1007.9
20260506003057 76 198 2.0 4.0 0.00 0.08 0.08 38 1007.8
20260506001607 77 237 1.0 10.0 0.00 0.08 0.08 37 1007.6
20260506000122 77 216 5.0 10.0 0.00 0.08 0.08 36 1007.4
20260505234607 78 241 3.0 9.0 0.00 0.08 0.08 35 1007.4
20260505233055 78 216 3.0 11.0 0.00 0.08 0.08 35 1007.4
20260505231557 79 248 2.0 10.0 0.00 0.08 0.08 34 1007.1
20260505230053 79 236 5.0 13.0 0.00 0.08 0.08 33 1007.0
20260505224553 79 257 4.0 12.0 0.00 0.08 0.08 32 1006.8
20260505223051 80 237 6.0 14.0 0.00 0.08 0.08 31 1006.6
20260505221557 80 225 6.0 17.0 0.00 0.08 0.08 30 1006.4
20260505220104 81 234 9.0 16.0 0.00 0.08 0.08 30 1006.3
20260505214559 81 176 4.0 14.0 0.00 0.08 0.08 33 1006.4
20260505213048 81 210 7.0 17.0 0.00 0.08 0.08 32 1006.2
20260505211616 81 186 5.0 15.0 0.00 0.08 0.08 32 1006.0
20260505210048 81 143 6.0 18.0 0.00 0.08 0.08 33 1005.9
20260505204557 81 177 5.0 15.0 0.00 0.08 0.08 33 1005.9
20260505203045 82 213 5.0 18.0 0.00 0.08 0.08 33 1006.1
20260505201543 81 265 6.0 26.0 0.00 0.08 0.08 32 1006.3
20260505200042 82 218 6.0 15.0 0.00 0.08 0.08 34 1006.4
20260505194540 82 243 7.0 17.0 0.00 0.08 0.08 33 1006.4
20260505193039 82 200 7.0 17.0 0.00 0.08 0.08 34 1006.6
20260505191537 82 218 4.0 16.0 0.00 0.08 0.08 36 1006.7
20260505190036 81 239 5.0 14.0 0.00 0.08 0.08 35 1006.8
20260505184540 81 215 1.0 11.0 0.00 0.08 0.08 37 1006.9
20260505183030 82 255 4.0 11.0 0.00 0.08 0.08 38 1007.5
20260505181532 81 214 4.0 12.0 0.00 0.08 0.08 38 1007.6
20260505180026 81 217 6.0 15.0 0.00 0.08 0.08 39 1007.6
20260505174535 81 190 3.0 7.0 0.00 0.08 0.08 42 1007.7
20260505173020 80 216 4.0 13.0 0.00 0.08 0.08 43 1007.9
20260505171529 80 202 2.0 11.0 0.00 0.08 0.08 43 1007.9
20260505170016 79 238 3.0 9.0 0.00 0.08 0.08 44 1008.0
20260505164515 78 347 3.0 10.0 0.00 0.08 0.08 45 1008.4
20260505163014 79 233 2.0 10.0 0.00 0.08 0.08 46 1008.5
20260505161510 78 229 1.0 10.0 0.00 0.08 0.08 47 1008.8